Location: Deerlick Astronomy Village
(33.5614°N, 82.7631°W)
Time: 18:52:25
(UTC-05:00)

CAS-4A - Pass Details

Date: 03 November 2020
Orbit: 528 x 543 km, 43.0° (Epoch: 30 November)

Event Time Altitude Azimuth Distance (km) Brightness Sun altitude
Exits shadow 05:03:27 60° 15° (NNE) 608 ? -23.0°
Maximum altitude 05:03:35 61° 26° (NNE) 605 ? -23.0°
Drops below altitude 10° 05:07:35 10° 108° (ESE) 1,767 ? -22.2°
Sets 05:09:50 0° 112° (ESE) 2,652 ? -21.7°
